When you browse on this site, cookies collect data to enhance your experience and personalize the content and advertising you see.
Visit our Privacy Policy to learn more. By continuing to use the site, you agree to this use of cookies and data.
  • en Suisse
  • Liste des pays
  • À 7 jours
  • Température de l'eau
  • Carte météo
  • Widgets météo
  • user-avatar
    Se connecter

    Météo par heure à Hoyerswerda

    Ce jour, 3 Juin, Mercredi

    Heure Température Précipitation Vent Pression Humidité
    00:00 +14°C° 0 mm 1 m/s 747 mmHg 90%
    01:00 +13°C° 0 mm 1 m/s 747 mmHg 92%
    02:00 +13°C° 0 mm 1 m/s 746 mmHg 92%
    03:00 +12°C° 0 mm 1 m/s 746 mmHg 93%
    04:00 +12°C° 0 mm 1 m/s 745 mmHg 93%
    05:00 +13°C° 0 mm 1 m/s 745 mmHg 89%
    06:00 +15°C° 0 mm 1 m/s 745 mmHg 85%
    07:00 +16°C° 0 mm 1 m/s 745 mmHg 81%
    08:00 +18°C° 0 mm 2 m/s 745 mmHg 72%
    09:00 +19°C° 0 mm 2 m/s 745 mmHg 63%
    10:00 +21°C° 0 mm 2 m/s 744 mmHg 53%
    11:00 +23°C° 0 mm 2 m/s 744 mmHg 49%
    12:00 +23°C° 0 mm 2 m/s 744 mmHg 46%
    13:00 +24°C° 0 mm 2 m/s 743 mmHg 42%
    14:00 +24°C° 0 mm 2 m/s 743 mmHg 41%
    15:00 +24°C° 0 mm 2 m/s 742 mmHg 41%
    16:00 +24°C° 0 mm 2 m/s 742 mmHg 40%
    17:00 +23°C° 0 mm 2 m/s 742 mmHg 46%
    18:00 +20°C° 0 mm 2 m/s 741 mmHg 53%
    19:00 +19°C° 0 mm 2 m/s 741 mmHg 59%
    20:00 +18°C° 0 mm 3 m/s 741 mmHg 62%
    21:00 +16°C° 0 mm 3 m/s 741 mmHg 66%
    22:00 +14°C° 0 mm 4 m/s 741 mmHg 69%
    23:00 +13°C° 0 mm 3 m/s 741 mmHg 71%

    Demain, 4 Juin, Jeudi

    Heure Température Précipitation Vent Pression Humidité
    00:00 +13°C° 0 mm 3 m/s 740 mmHg 74%
    01:00 +12°C° 0 mm 3 m/s 740 mmHg 76%
    02:00 +12°C° 0 mm 3 m/s 740 mmHg 76%
    03:00 +11°C° 0 mm 3 m/s 739 mmHg 76%
    04:00 +11°C° 0 mm 3 m/s 739 mmHg 76%
    05:00 +12°C° 0 mm 3 m/s 739 mmHg 73%
    06:00 +13°C° 0 mm 3 m/s 738 mmHg 71%
    07:00 +16°C° 0 mm 3 m/s 738 mmHg 69%
    08:00 +17°C° 0 mm 4 m/s 738 mmHg 65%
    09:00 +19°C° 0 mm 4 m/s 737 mmHg 61%
    10:00 +20°C° 0 mm 4 m/s 737 mmHg 58%
    11:00 +20°C° 0.3 mm 4 m/s 737 mmHg 64%
    12:00 +20°C° 0.3 mm 3 m/s 736 mmHg 70%
    13:00 +19°C° 0.3 mm 3 m/s 736 mmHg 76%
    14:00 +19°C° 0.2 mm 3 m/s 736 mmHg 76%
    15:00 +20°C° 0.2 mm 3 m/s 735 mmHg 75%
    16:00 +20°C° 0.2 mm 3 m/s 735 mmHg 74%
    17:00 +19°C° 0.3 mm 3 m/s 734 mmHg 77%
    18:00 +19°C° 0.3 mm 3 m/s 734 mmHg 81%
    19:00 +19°C° 0.3 mm 2 m/s 733 mmHg 84%
    20:00 +18°C° 1 mm 3 m/s 733 mmHg 87%
    21:00 +17°C° 1 mm 3 m/s 733 mmHg 90%
    22:00 +16°C° 1 mm 3 m/s 733 mmHg 93%
    23:00 +16°C° 0.9 mm 3 m/s 733 mmHg 94%

    Après-demain, 5 Juin, Vendredi

    Heure Température Précipitation Vent Pression Humidité
    00:00 +14°C° 0.9 mm 3 m/s 733 mmHg 95%
    01:00 +14°C° 0.9 mm 4 m/s 733 mmHg 96%
    02:00 +13°C° 0.2 mm 4 m/s 733 mmHg 95%
    03:00 +12°C° 0.2 mm 5 m/s 733 mmHg 94%
    04:00 +10°C° 0.2 mm 5 m/s 734 mmHg 93%
    05:00 +10°C° 0 mm 5 m/s 734 mmHg 91%
    06:00 +10°C° 0 mm 5 m/s 735 mmHg 88%
    07:00 +10°C° 0 mm 5 m/s 735 mmHg 86%
    08:00 +12°C° 0 mm 5 m/s 736 mmHg 81%
    09:00 +13°C° 0 mm 4 m/s 736 mmHg 76%
    10:00 +13°C° 0 mm 4 m/s 737 mmHg 70%
    11:00 +14°C° 0 mm 4 m/s 737 mmHg 63%
    12:00 +17°C° 0 mm 4 m/s 737 mmHg 56%
    13:00 +18°C° 0 mm 4 m/s 737 mmHg 49%
    14:00 +18°C° 0 mm 3 m/s 737 mmHg 50%
    15:00 +18°C° 0 mm 3 m/s 737 mmHg 51%
    16:00 +18°C° 0 mm 3 m/s 736 mmHg 51%
    17:00 +17°C° 0 mm 2 m/s 736 mmHg 56%
    18:00 +16°C° 0 mm 2 m/s 736 mmHg 61%
    19:00 +16°C° 0 mm 2 m/s 736 mmHg 66%
    20:00 +14°C° 0.2 mm 3 m/s 736 mmHg 73%
    21:00 +12°C° 0.2 mm 4 m/s 736 mmHg 79%
    22:00 +11°C° 0.2 mm 4 m/s 737 mmHg 86%
    23:00 +10°C° 0.3 mm 5 m/s 737 mmHg 86%

    6 Juin, Samedi

    Heure Température Précipitation Vent Pression Humidité
    00:00 +10°C° 0.3 mm 5 m/s 737 mmHg 87%
    01:00 +9°C° 0.3 mm 5 m/s 737 mmHg 87%
    02:00 +9°C° 0 mm 5 m/s 737 mmHg 88%
    03:00 +8°C° 0 mm 5 m/s 738 mmHg 89%
    04:00 +7°C° 0 mm 5 m/s 738 mmHg 90%
    05:00 +8°C° 0 mm 5 m/s 739 mmHg 85%
    06:00 +9°C° 0 mm 5 m/s 739 mmHg 79%
    07:00 +10°C° 0 mm 5 m/s 740 mmHg 74%
    08:00 +11°C° 0.2 mm 6 m/s 740 mmHg 69%
    09:00 +14°C° 0.2 mm 7 m/s 740 mmHg 64%
    10:00 +15°C° 0.2 mm 7 m/s 740 mmHg 58%
    11:00 +16°C° 0.1 mm 7 m/s 741 mmHg 54%
    12:00 +17°C° 0.1 mm 7 m/s 741 mmHg 50%
    13:00 +18°C° 0.1 mm 7 m/s 741 mmHg 45%
    14:00 +18°C° 0.1 mm 7 m/s 741 mmHg 47%
    15:00 +18°C° 0.1 mm 7 m/s 741 mmHg 49%
    16:00 +18°C° 0.1 mm 7 m/s 741 mmHg 51%
    17:00 +17°C° 0.1 mm 6 m/s 741 mmHg 58%
    18:00 +16°C° 0.1 mm 5 m/s 742 mmHg 65%
    19:00 +15°C° 0.1 mm 4 m/s 742 mmHg 73%
    20:00 +14°C° 0 mm 3 m/s 742 mmHg 77%
    21:00 +13°C° 0 mm 3 m/s 742 mmHg 81%
    22:00 +11°C° 0 mm 3 m/s 743 mmHg 85%
    23:00 +11°C° 0 mm 3 m/s 743 mmHg 87%

    7 Juin, Dimanche

    Heure Température Précipitation Vent Pression Humidité
    00:00 +11°C° 0 mm 3 m/s 742 mmHg 89%
    01:00 +11°C° 0 mm 3 m/s 742 mmHg 91%
    02:00 +12°C° 0.1 mm 3 m/s 742 mmHg 91%
    03:00 +12°C° 0.1 mm 3 m/s 743 mmHg 92%
    04:00 +12°C° 0.1 mm 3 m/s 743 mmHg 92%
    05:00 +12°C° 0.1 mm 3 m/s 743 mmHg 90%
    06:00 +13°C° 0.1 mm 3 m/s 743 mmHg 88%
    07:00 +13°C° 0.1 mm 3 m/s 744 mmHg 85%
    08:00 +14°C° 0 mm 3 m/s 744 mmHg 76%
    09:00 +17°C° 0 mm 4 m/s 744 mmHg 66%
    10:00 +18°C° 0 mm 4 m/s 744 mmHg 56%
    11:00 +18°C° 0 mm 4 m/s 744 mmHg 54%
    12:00 +19°C° 0 mm 4 m/s 745 mmHg 52%
    13:00 +19°C° 0 mm 4 m/s 745 mmHg 50%
    14:00 +19°C° 0 mm 5 m/s 745 mmHg 49%
    15:00 +19°C° 0 mm 5 m/s 745 mmHg 48%
    16:00 +17°C° 0 mm 5 m/s 745 mmHg 47%
    17:00 +17°C° 0 mm 4 m/s 746 mmHg 53%
    18:00 +17°C° 0 mm 3 m/s 746 mmHg 58%
    19:00 +16°C° 0 mm 2 m/s 746 mmHg 64%
    20:00 +15°C° 0 mm 2 m/s 747 mmHg 65%
    21:00 +13°C° 0 mm 2 m/s 747 mmHg 66%
    22:00 +12°C° 0 mm 2 m/s 748 mmHg 68%
    23:00 +10°C° 0 mm 2 m/s 748 mmHg 69%

    8 Juin, Lundi

    Heure Température Précipitation Vent Pression Humidité
    00:00 +10°C° 0 mm 2 m/s 748 mmHg 70%
    01:00 +9°C° 0 mm 2 m/s 748 mmHg 72%
    02:00 +9°C° 0 mm 2 m/s 748 mmHg 73%
    03:00 +9°C° 0 mm 2 m/s 748 mmHg 74%
    04:00 +9°C° 0 mm 2 m/s 748 mmHg 75%
    05:00 +12°C° 0 mm 2 m/s 748 mmHg 72%
    06:00 +13°C° 0 mm 2 m/s 748 mmHg 69%
    07:00 +14°C° 0 mm 2 m/s 748 mmHg 67%
    08:00 +16°C° 0 mm 2 m/s 748 mmHg 61%
    09:00 +17°C° 0 mm 2 m/s 748 mmHg 55%
    10:00 +19°C° 0 mm 2 m/s 749 mmHg 49%
    11:00 +19°C° 0 mm 2 m/s 748 mmHg 50%
    12:00 +19°C° 0 mm 2 m/s 748 mmHg 50%
    13:00 +19°C° 0 mm 2 m/s 748 mmHg 51%
    14:00 +19°C° 0 mm 2 m/s 748 mmHg 52%
    15:00 +19°C° 0 mm 2 m/s 748 mmHg 53%
    16:00 +19°C° 0 mm 2 m/s 748 mmHg 55%
    17:00 +18°C° 0 mm 2 m/s 748 mmHg 59%
    18:00 +17°C° 0 mm 2 m/s 748 mmHg 64%
    19:00 +17°C° 0 mm 2 m/s 748 mmHg 68%
    20:00 +15°C° 0 mm 2 m/s 748 mmHg 72%
    21:00 +14°C° 0 mm 2 m/s 748 mmHg 77%
    22:00 +12°C° 0 mm 3 m/s 748 mmHg 81%
    23:00 +11°C° 0 mm 3 m/s 748 mmHg 83%
    Voir plus